Погода в Низеве

Россия / Кировская область     58°27′23″N   51°34′34″E
темп.,
°C
ветер,
м/с
пор.,
м/с
влажн.,
%
обл.,
%
осадки,
мм/ч
давл.,
гПа
погр.,
м
20 апреля, вт
вт2000:00−1вюв22690 0.0 103535
03:00−2вюв11680 0.0 103610
06:00+1вюв12540 0.0 1036116
09:00+6юв22350 0.0 1036935
12:00+8ююв22310 0.0 10341253
15:00+9ююв11312 0.0 10331254
18:00+6юв12465 0.0 103214
21:00+3вюв22530 0.0 103211
21 апреля, ср
ср2100:00+1юв22632 0.0 103222
03:000вюв24680 0.0 103270
06:00+2вюв395851 0.0 1030248
09:00+7юв51039100 0.0 1029911
12:00+10ююв61034100 0.0 10271338
15:00+11ююв61236100 0.0 10251578
18:00+8ююв61442100 0.0 10241218
21:00+7ююв61445100 0.0 10241280
22 апреля, чт
чт2200:00+3ююв61496100 0.9 1023790
03:00+2ююв61496100 4.6 1023695
06:00+2ю51297100 1.3 1023688
09:00+3ююв41197100 1.4 1023653
12:00+3ююв41197100 1.9 1024665
15:00+4ю41096100 1.9 1024733
18:00+4ю41196100 0.0 1025587
21:00+5ю41197100 0.2 1025525
23 апреля, пт
пт2300:00+5ю31096100 0.0 1024446
03:00+4ююв31096100 0.1 1024476
06:00+4ю3896100 0.4 1025543
09:00+5ю3794100 0.4 1025445
12:00+6ю3590100 0.0 1025518
15:00+8ю3581100 0.1 1025626
18:00+7юв2492100 0.1 1025101
21:00+6юв2793100 0.1 1025226
24 апреля, сб
сб2400:00+5юв269547 0.0 1024175
03:00+3юв279685 0.0 1024155
06:00+5юв389046 0.0 1023305
09:00+9юв356970 0.0 10211013
12:00+9вюв3564100 0.0 10201243
15:00+9в3563100 0.0 10181140
18:00+7вюв2675100 0.0 1017304
21:00+6в2681100 0.0 1016188